Hourly Weather Otok

Today, 24 July, Saturday

Time Temperature Precipitation Wind Pressure Humidity
00:00 +19°C° 0 mm 2 mps 749 mmHg 62%
01:00 +19°C° 0 mm 2 mps 748 mmHg 64%
02:00 +18°C° 0 mm 2 mps 748 mmHg 68%
03:00 +18°C° 0 mm 1 mps 748 mmHg 71%
04:00 +18°C° 0 mm 1 mps 748 mmHg 75%
05:00 +19°C° 0 mm 1 mps 748 mmHg 71%
06:00 +20°C° 0 mm 1 mps 748 mmHg 67%
07:00 +22°C° 0 mm 1 mps 748 mmHg 64%
08:00 +23°C° 0 mm 2 mps 748 mmHg 57%
09:00 +25°C° 0 mm 2 mps 748 mmHg 51%
10:00 +27°C° 0 mm 2 mps 748 mmHg 45%
11:00 +27°C° 0 mm 2 mps 748 mmHg 42%
12:00 +28°C° 0 mm 1 mps 748 mmHg 39%
13:00 +29°C° 0 mm 1 mps 747 mmHg 37%
14:00 +29°C° 0 mm 2 mps 747 mmHg 37%
15:00 +29°C° 0 mm 2 mps 747 mmHg 37%
16:00 +29°C° 0 mm 2 mps 747 mmHg 37%
17:00 +28°C° 0 mm 2 mps 747 mmHg 45%
18:00 +26°C° 0 mm 3 mps 747 mmHg 53%
19:00 +24°C° 0 mm 3 mps 746 mmHg 60%
20:00 +22°C° 0 mm 3 mps 746 mmHg 63%
21:00 +21°C° 0 mm 3 mps 747 mmHg 66%
22:00 +20°C° 0 mm 3 mps 747 mmHg 69%
23:00 +20°C° 0 mm 2 mps 746 mmHg 71%

Tomorrow, 25 July, Sunday

Time Temperature Precipitation Wind Pressure Humidity
00:00 +20°C° 0 mm 2 mps 746 mmHg 72%
01:00 +20°C° 0 mm 2 mps 746 mmHg 74%
02:00 +20°C° 0 mm 2 mps 746 mmHg 73%
03:00 +20°C° 0 mm 2 mps 746 mmHg 71%
04:00 +21°C° 0 mm 2 mps 746 mmHg 70%
05:00 +22°C° 0 mm 3 mps 746 mmHg 65%
06:00 +24°C° 0 mm 3 mps 746 mmHg 61%
07:00 +25°C° 0 mm 4 mps 746 mmHg 56%
08:00 +26°C° 0 mm 4 mps 746 mmHg 53%
09:00 +27°C° 0 mm 5 mps 746 mmHg 50%
10:00 +28°C° 0 mm 5 mps 746 mmHg 47%
11:00 +26°C° 0.2 mm 5 mps 746 mmHg 56%
12:00 +23°C° 0.2 mm 5 mps 747 mmHg 65%
13:00 +22°C° 0.2 mm 5 mps 747 mmHg 74%
14:00 +21°C° 0.2 mm 4 mps 747 mmHg 76%
15:00 +21°C° 0.2 mm 3 mps 746 mmHg 78%
16:00 +21°C° 0.2 mm 2 mps 746 mmHg 80%
17:00 +21°C° 0.1 mm 2 mps 746 mmHg 80%
18:00 +21°C° 0.1 mm 2 mps 746 mmHg 81%
19:00 +21°C° 0.1 mm 2 mps 745 mmHg 81%
20:00 +20°C° 0.1 mm 2 mps 745 mmHg 82%
21:00 +20°C° 0.1 mm 2 mps 745 mmHg 83%
22:00 +19°C° 0.1 mm 2 mps 745 mmHg 85%
23:00 +19°C° 0.1 mm 2 mps 745 mmHg 87%

Day after tomorrow, 26 July, Monday

Time Temperature Precipitation Wind Pressure Humidity
00:00 +19°C° 0.1 mm 1 mps 745 mmHg 89%
01:00 +18°C° 0.1 mm 1 mps 745 mmHg 91%
02:00 +19°C° 0.1 mm 1 mps 745 mmHg 91%
03:00 +19°C° 0.1 mm 1 mps 745 mmHg 92%
04:00 +19°C° 0.1 mm 1 mps 745 mmHg 92%
05:00 +19°C° 0.2 mm 1 mps 745 mmHg 90%
06:00 +19°C° 0.2 mm 2 mps 745 mmHg 88%
07:00 +20°C° 0.2 mm 2 mps 745 mmHg 85%
08:00 +21°C° 0 mm 2 mps 746 mmHg 78%
09:00 +24°C° 0 mm 2 mps 746 mmHg 72%
10:00 +26°C° 0 mm 3 mps 746 mmHg 65%
11:00 +27°C° 0.1 mm 2 mps 746 mmHg 61%
12:00 +27°C° 0.1 mm 2 mps 746 mmHg 58%
13:00 +28°C° 0.1 mm 2 mps 746 mmHg 54%
14:00 +29°C° 0 mm 2 mps 746 mmHg 52%
15:00 +29°C° 0 mm 2 mps 746 mmHg 50%
16:00 +30°C° 0 mm 2 mps 746 mmHg 48%
17:00 +28°C° 0 mm 2 mps 746 mmHg 54%
18:00 +27°C° 0 mm 1 mps 746 mmHg 59%
19:00 +26°C° 0 mm 1 mps 746 mmHg 65%
20:00 +25°C° 0 mm 1 mps 746 mmHg 67%
21:00 +24°C° 0 mm 1 mps 746 mmHg 70%
22:00 +23°C° 0 mm 2 mps 747 mmHg 72%
23:00 +22°C° 0.1 mm 1 mps 747 mmHg 76%

27 July, Tuesday

Time Temperature Precipitation Wind Pressure Humidity
00:00 +21°C° 0.1 mm 1 mps 747 mmHg 81%
01:00 +20°C° 0.1 mm 1 mps 747 mmHg 85%
02:00 +20°C° 0 mm 1 mps 747 mmHg 86%
03:00 +19°C° 0 mm 1 mps 747 mmHg 87%
04:00 +19°C° 0 mm 1 mps 748 mmHg 88%
05:00 +19°C° 0 mm 2 mps 748 mmHg 82%
06:00 +20°C° 0 mm 2 mps 748 mmHg 77%
07:00 +23°C° 0 mm 2 mps 748 mmHg 72%
08:00 +24°C° 0 mm 2 mps 748 mmHg 66%
09:00 +26°C° 0 mm 2 mps 748 mmHg 60%
10:00 +28°C° 0 mm 2 mps 748 mmHg 54%
11:00 +28°C° 0 mm 2 mps 748 mmHg 51%
12:00 +29°C° 0 mm 1 mps 748 mmHg 49%
13:00 +30°C° 0 mm 1 mps 748 mmHg 47%
14:00 +30°C° 0 mm 1 mps 748 mmHg 47%
15:00 +30°C° 0 mm 1 mps 748 mmHg 47%
16:00 +30°C° 0 mm 1 mps 748 mmHg 47%
17:00 +29°C° 0.1 mm 2 mps 748 mmHg 54%
18:00 +27°C° 0.1 mm 2 mps 747 mmHg 61%
19:00 +26°C° 0.1 mm 3 mps 747 mmHg 67%
20:00 +24°C° 0.5 mm 2 mps 747 mmHg 72%
21:00 +23°C° 0.5 mm 2 mps 747 mmHg 77%
22:00 +22°C° 0.5 mm 1 mps 747 mmHg 81%
23:00 +21°C° 0 mm 1 mps 747 mmHg 83%

28 July, Wednesday

Time Temperature Precipitation Wind Pressure Humidity
00:00 +21°C° 0 mm 1 mps 748 mmHg 85%
01:00 +20°C° 0 mm 1 mps 748 mmHg 87%
02:00 +20°C° 0 mm 1 mps 747 mmHg 88%
03:00 +20°C° 0 mm 1 mps 747 mmHg 88%
04:00 +20°C° 0 mm 1 mps 747 mmHg 89%
05:00 +21°C° 0 mm 1 mps 747 mmHg 84%
06:00 +23°C° 0 mm 1 mps 747 mmHg 79%
07:00 +24°C° 0 mm 1 mps 747 mmHg 74%
08:00 +26°C° 0 mm 1 mps 747 mmHg 66%
09:00 +28°C° 0 mm 1 mps 747 mmHg 59%
10:00 +30°C° 0 mm 2 mps 747 mmHg 52%
11:00 +31°C° 0 mm 2 mps 746 mmHg 47%
12:00 +32°C° 0 mm 2 mps 746 mmHg 43%
13:00 +34°C° 0 mm 2 mps 746 mmHg 39%
14:00 +32°C° 0.4 mm 2 mps 746 mmHg 43%
15:00 +31°C° 0.4 mm 3 mps 745 mmHg 48%
16:00 +30°C° 0.4 mm 4 mps 745 mmHg 53%
17:00 +27°C° 1.9 mm 4 mps 746 mmHg 63%
18:00 +25°C° 1.9 mm 4 mps 746 mmHg 73%
19:00 +22°C° 1.9 mm 4 mps 747 mmHg 83%
20:00 +21°C° 0.1 mm 3 mps 747 mmHg 84%
21:00 +21°C° 0.1 mm 2 mps 748 mmHg 85%
22:00 +21°C° 0.1 mm 1 mps 748 mmHg 87%
23:00 +20°C° 0 mm 1 mps 748 mmHg 88%

29 July, Thursday

Time Temperature Precipitation Wind Pressure Humidity
00:00 +19°C° 0 mm 2 mps 748 mmHg 90%
01:00 +18°C° 0 mm 2 mps 748 mmHg 92%
02:00 +18°C° 0 mm 2 mps 749 mmHg 92%
03:00 +18°C° 0 mm 2 mps 749 mmHg 92%
04:00 +18°C° 0 mm 1 mps 749 mmHg 92%
05:00 +19°C° 0 mm 1 mps 749 mmHg 87%
06:00 +21°C° 0 mm 1 mps 749 mmHg 81%
07:00 +22°C° 0 mm 1 mps 749 mmHg 76%
08:00 +24°C° 0 mm 1 mps 749 mmHg 69%
09:00 +25°C° 0 mm 1 mps 749 mmHg 62%
10:00 +27°C° 0 mm 2 mps 749 mmHg 55%
11:00 +28°C° 0 mm 2 mps 749 mmHg 50%
12:00 +29°C° 0 mm 2 mps 748 mmHg 46%
13:00 +30°C° 0 mm 2 mps 748 mmHg 42%
14:00 +30°C° 0 mm 2 mps 748 mmHg 42%
15:00 +30°C° 0 mm 2 mps 747 mmHg 41%
16:00 +31°C° 0 mm 2 mps 747 mmHg 40%
17:00 +29°C° 0 mm 2 mps 747 mmHg 47%
18:00 +28°C° 0 mm 1 mps 746 mmHg 53%
19:00 +27°C° 0 mm 1 mps 746 mmHg 59%
20:00 +26°C° 0 mm 2 mps 746 mmHg 61%
21:00 +25°C° 0 mm 2 mps 745 mmHg 63%
22:00 +24°C° 0 mm 3 mps 745 mmHg 65%
23:00 +22°C° 0 mm 3 mps 745 mmHg 67%
Show more